DW2489 Weather Reports


Display with metric or nautical units.
time (UTC)temp
F
wind
direction
speed
MPH
gust
MPH
rain 1hr
in
rain 24hr
in
rain mn
in
humidity
%
barometer
mb
20260507025616 45 119 1.0 3.0 0.00 1.11 1.11 1009.5
20260507025043 45 119 0.0 4.0 0.00 1.11 1.11 1009.5
20260507024542 46 119 2.0 4.0 0.00 1.11 1.11 1009.1
20260507024041 46 119 0.0 0.0 0.00 1.11 1.11 1009.8
20260507023540 46 119 0.0 0.0 0.00 1.11 1.11 1009.5
20260507023038 46 119 0.0 0.0 0.00 1.11 1.11 1009.5
20260507022538 46 119 0.0 0.0 0.01 1.11 1.11 1009.5
20260507022037 45 120 0.0 0.0 0.01 1.11 1.11 1009.5
20260507021533 45 120 0.0 3.0 0.01 1.11 1.11 1009.5
20260507021032 45 120 0.0 3.0 0.01 1.11 1.11 1009.5
20260507020531 45 120 0.0 3.0 0.02 1.11 1.11 1009.5
20260507020029 45 120 0.0 6.0 0.02 1.11 1.11 1009.5
20260507015528 45 120 0.0 6.0 0.02 1.11 1.11 1009.5
20260507015025 46 120 1.0 4.0 0.02 1.11 1.11 1009.5
20260507014350 45 120 0.0 2.0 0.02 1.11 1.11 1009.5
20260507013848 45 120 0.0 4.0 0.02 1.11 1.11 1009.5
20260507013347 45 120 0.0 4.0 0.03 1.11 1.11 1009.5
20260507012845 46 120 2.0 4.0 0.03 1.11 1.11 1009.1
20260507012342 46 120 0.0 6.0 0.02 1.10 1.10 1009.1
20260507011841 46 120 0.0 6.0 0.03 1.10 1.10 1009.1
20260507011338 46 98 2.0 4.0 0.03 1.10 1.10 1009.1
20260507010837 46 91 0.0 4.0 0.03 1.10 1.10 1009.1
20260507010336 46 91 0.0 6.0 0.02 1.09 1.09 1009.1
20260507005700 46 91 2.0 6.0 0.02 1.09 1.09 1009.1
20260507005158 46 103 2.0 6.0 0.02 1.09 1.09 1009.1
20260507004657 46 150 3.0 6.0 0.02 1.09 1.09 1009.1
20260507004156 46 94 3.0 6.0 0.02 1.09 1.09 1009.1
20260507003654 46 32 1.0 6.0 0.02 1.08 1.08 1008.8
20260507003153 46 32 2.0 6.0 0.03 1.08 1.08 1008.8
20260507002652 46 129 2.0 4.0 0.03 1.08 1.08 1008.8
20260507002151 46 129 2.0 4.0 0.02 1.07 1.07 1008.8
20260507001650 46 129 0.0 2.0 0.03 1.07 1.07 1008.5
20260507001149 46 129 0.0 7.0 0.03 1.07 1.07 1008.5
20260507000648 46 99 0.0 7.0 0.05 1.07 1.07 1008.1
20260507000147 46 106 2.0 7.0 0.06 1.07 1.07 1008.1
20260506235646 46 103 2.0 4.0 0.06 1.07 1.07 1008.1
20260506235144 46 103 0.0 4.0 0.08 1.07 1.07 1007.8
20260506234642 46 103 1.0 4.0 0.08 1.07 1.07 1007.8
20260506234140 46 103 0.0 6.0 0.08 1.07 1.07 1007.5
20260506233639 46 103 1.0 6.0 0.07 1.06 1.06 1007.5
20260506233138 46 125 0.0 4.0 0.06 1.05 1.05 1007.8
20260506232637 47 125 0.0 4.0 0.07 1.05 1.05 1007.5
20260506232135 47 125 3.0 4.0 0.07 1.05 1.05 1007.5
20260506231634 47 22 2.0 4.0 0.06 1.04 1.04 1007.5
20260506231133 47 22 0.0 6.0 0.05 1.03 1.03 1007.5
20260506230632 47 22 0.0 6.0 0.04 1.02 1.02 1007.5
20260506230130 47 22 1.0 4.0 0.03 1.01 1.01 1007.1
20260506225629 47 21 0.0 3.0 0.03 1.00 1.00 1007.5
20260506225128 47 22 0.0 3.0 0.02 0.99 0.99 1007.1
20260506224627 47 22 0.0 3.0 0.02 0.99 0.99 1007.1
20260506224125 47 22 1.0 3.0 0.02 0.99 0.99 1006.8
20260506223551 47 22 0.0 3.0 0.02 0.99 0.99 1006.8
20260506223050 47 22 1.0 3.0 0.02 0.99 0.99 1006.8
20260506222549 47 22 1.0 3.0 0.02 0.98 0.98 1006.8
20260506222048 47 22 0.0 9.0 0.03 0.98 0.98 1006.8
20260506221547 47 21 2.0 9.0 0.03 0.98 0.98 1006.4
20260506220943 47 23 3.0 7.0 0.04 0.98 0.98 1006.1
20260506220441 47 41 0.0 6.0 0.04 0.98 0.98 1006.1
20260506215940 47 41 0.0 7.0 0.04 0.98 0.98 1006.1
20260506215438 47 41 0.0 7.0 0.04 0.97 0.97 1006.1
20260506214937 47 41 3.0 7.0 0.04 0.97 0.97 1006.1
20260506214404 46 7 0.0 9.0 0.04 0.97 0.97 1006.1
20260506213831 46 77 0.0 9.0 0.04 0.97 0.97 1005.8
20260506213331 46 46 3.0 9.0 0.05 0.97 0.97 1005.8
20260506212830 47 70 0.0 6.0 0.05 0.97 0.97 1005.8
20260506212329 47 65 2.0 7.0 0.04 0.96 0.96 1005.8
20260506211756 47 0 2.0 10.0 0.03 0.95 0.95 1005.8
20260506211255 46 20 3.0 10.0 0.02 0.94 0.94 1005.8
20260506210754 46 4 2.0 9.0 0.03 0.94 0.94 1005.8
20260506210252 46 18 3.0 9.0 0.03 0.94 0.94 1005.8
20260506205750 46 23 4.0 10.0 0.03 0.94 0.94 1005.4
20260506205248 46 27 3.0 12.0 0.02 0.93 0.93 1005.4
20260506204747 47 29 6.0 12.0 0.02 0.93 0.93 1005.4
20260506204245 47 7 4.0 13.0 0.03 0.93 0.93 1005.4
20260506203743 47 40 2.0 13.0 0.06 0.92 0.92 1005.4
20260506203211 47 45 3.0 12.0 0.07 0.92 0.92 1005.1
20260506202639 47 18 5.0 12.0 0.08 0.92 0.92 1005.1
20260506202137 47 21 2.0 9.0 0.08 0.92 0.92 1005.1
20260506201636 47 48 3.0 10.0 0.08 0.92 0.92 1005.1
20260506201134 47 56 4.0 10.0 0.08 0.92 0.92 1005.1
20260506200633 47 30 3.0 10.0 0.07 0.91 0.91 1005.1
20260506200131 47 44 2.0 9.0 0.07 0.91 0.91 1005.1
20260506195628 48 9 3.0 9.0 0.07 0.91 0.91 1004.7
20260506195126 48 14 4.0 10.0 0.07 0.91 0.91 1005.1
20260506194624 48 78 3.0 10.0 0.08 0.91 0.91 1004.7
20260506194123 48 24 5.0 12.0 0.04 0.90 0.87 1005.1
20260506193449 48 23 2.0 12.0 0.02 0.95 0.85 1005.1
20260506192947 49 28 5.0 10.0 0.03 0.95 0.85 1005.1
20260506192446 49 54 5.0 10.0 0.04 0.94 0.84 1005.1
20260506191944 49 27 3.0 12.0 0.05 0.94 0.84 1005.1
20260506191442 50 79 2.0 15.0 0.06 0.94 0.84 1004.7
20260506190940 50 44 4.0 15.0 0.07 0.94 0.84 1004.7
20260506190439 50 49 5.0 15.0 0.07 0.94 0.84 1004.7
20260506185907 51 44 5.0 13.0 0.08 0.94 0.84 1004.7
20260506185406 51 67 3.0 13.0 0.09 0.94 0.84 1004.7
20260506184901 51 83 4.0 13.0 0.10 0.94 0.84 1004.7
20260506184359 51 85 2.0 10.0 0.10 0.93 0.83 1004.7
20260506183857 51 69 5.0 10.0 0.10 0.93 0.83 1004.7
20260506183356 52 0 2.0 7.0 0.11 0.93 0.83 1004.7
20260506182855 52 15 0.0 7.0 0.11 0.92 0.82 1004.7
20260506182354 52 22 3.0 6.0 0.09 0.90 0.80 1004.7
20260506181852 52 22 2.0 7.0 0.09 0.89 0.79 1004.7
20260506181350 52 22 3.0 7.0 0.09 0.88 0.78 1004.7
20260506180745 52 8 4.0 6.0 0.10 0.87 0.77 1004.7
20260506180244 52 10 3.0 4.0 0.09 0.86 0.76 1004.7
20260506175742 52 10 1.0 4.0 0.10 0.85 0.75 1004.7
20260506175240 52 10 2.0 6.0 0.11 0.85 0.75 1004.7
20260506174738 52 10 0.0 7.0 0.11 0.84 0.74 1005.1
20260506174237 52 21 3.0 7.0 0.12 0.83 0.73 1005.1
20260506173735 53 37 3.0 7.0 0.13 0.82 0.72 1004.7
20260506173233 53 28 2.0 6.0 0.13 0.81 0.71 1005.1
20260506172731 53 44 3.0 6.0 0.14 0.81 0.71 1005.1
20260506172230 53 15 0.0 6.0 0.16 0.81 0.71 1005.1
20260506171657 53 16 1.0 4.0 0.15 0.79 0.69 1005.1
20260506171156 53 15 0.0 7.0 0.15 0.78 0.68 1005.1
20260506170653 53 67 0.0 7.0 0.14 0.77 0.67 1005.1
20260506170150 53 91 6.0 7.0 0.15 0.77 0.67 1005.1
20260506165648 53 357 1.0 7.0 0.14 0.75 0.65 1005.4
20260506165146 53 76 2.0 7.0 0.14 0.74 0.64 1005.4
20260506164612 54 33 1.0 6.0 0.14 0.72 0.62 1005.4
20260506164111 54 33 2.0 4.0 0.14 0.71 0.61 1005.8
20260506163609 54 33 2.0 4.0 0.13 0.69 0.59 1005.4
20260506163108 54 33 0.0 4.0 0.13 0.68 0.58 1005.4
20260506162607 54 176 1.0 9.0 0.13 0.67 0.57 1005.4
20260506162104 54 199 0.0 9.0 0.12 0.65 0.55 1005.8
20260506161602 55 19 3.0 9.0 0.13 0.64 0.54 1005.8
20260506161059 55 55 0.0 6.0 0.13 0.63 0.53 1005.8
20260506160527 55 55 1.0 6.0 0.14 0.63 0.53 1005.8
20260506160023 55 55 2.0 6.0 0.15 0.62 0.52 1005.8
20260506155450 55 55 0.0 6.0 0.15 0.60 0.50 1005.8
20260506154918 55 55 0.0 6.0 0.15 0.59 0.49 1006.1
20260506154345 55 55 1.0 3.0 0.16 0.58 0.48 1006.1
20260506153844 55 55 0.0 3.0 0.16 0.57 0.47 1006.1
20260506153343 55 55 1.0 6.0 0.16 0.56 0.46 1006.1
20260506152838 55 55 1.0 6.0 0.15 0.54 0.44 1006.1
20260506152336 55 55 1.0 7.0 0.15 0.53 0.43 1006.1
20260506151835 55 55 1.0 7.0 0.15 0.52 0.42 1006.1
20260506151333 55 56 3.0 7.0 0.14 0.50 0.40 1006.1
20260506150832 55 56 2.0 4.0 0.14 0.49 0.39 1006.4
20260506150331 55 56 0.0 2.0 0.14 0.48 0.38 1006.4
20260506145830 55 11 0.0 0.0 0.14 0.47 0.37 1006.4
20260506145325 56 11 0.0 0.0 0.13 0.45 0.35 1006.8
20260506144751 56 12 0.0 0.0 0.12 0.43 0.33 1006.4
20260506144249 56 12 0.0 0.0 0.12 0.42 0.32 1006.8
20260506143748 56 12 0.0 0.0 0.11 0.41 0.31 1006.8
20260506143246 56 11 0.0 0.0 0.11 0.40 0.30 1006.8
20260506142744 55 11 0.0 0.0 0.10 0.39 0.29 1007.1
20260506142211 55 16 0.0 0.0 0.10 0.38 0.28 1007.1
20260506141709 55 15 0.0 0.0 0.10 0.37 0.27 1007.1
20260506141208 55 15 0.0 0.0 0.08 0.35 0.25 1007.1
20260506140707 55 14 0.0 7.0 0.08 0.34 0.24 1007.1
20260506140205 55 14 0.0 7.0 0.08 0.33 0.23 1007.5
20260506135703 55 55 0.0 4.0 0.08 0.33 0.23 1007.5
20260506135202 55 55 0.0 4.0 0.08 0.32 0.22 1007.1
20260506134701 55 55 0.0 4.0 0.08 0.31 0.21 1006.8
20260506134200 55 55 0.0 6.0 0.08 0.30 0.20 1006.8
20260506133658 55 55 0.0 6.0 0.08 0.29 0.19 1006.8
20260506133157 55 55 0.0 3.0 0.08 0.29 0.19 1006.8
20260506132625 55 55 0.0 4.0 0.09 0.29 0.19 1006.8
20260506132124 55 55 0.0 4.0 0.09 0.28 0.18 1006.8
20260506131622 55 55 0.0 4.0 0.09 0.27 0.17 1006.8
20260506131121 55 55 0.0 3.0 0.09 0.27 0.17 1006.8
20260506130619 55 55 0.0 3.0 0.09 0.26 0.16 1006.8
20260506130117 55 55 0.0 3.0 0.08 0.25 0.15 1006.8
20260506125616 55 55 0.0 3.0 0.08 0.25 0.15 1007.1
20260506125114 55 55 1.0 4.0 0.08 0.24 0.14 1007.1
20260506124542 55 55 0.0 4.0 0.07 0.23 0.13 1007.1
20260506124041 55 55 2.0 4.0 0.06 0.22 0.12 1007.1
20260506123509 55 55 0.0 4.0 0.05 0.21 0.11 1007.5
20260506122936 55 55 0.0 4.0 0.05 0.21 0.11 1007.1
20260506122435 55 55 2.0 4.0 0.04 0.20 0.10 1007.5
20260506121932 55 55 0.0 3.0 0.03 0.19 0.09 1007.5
20260506121430 55 55 1.0 3.0 0.02 0.18 0.08 1007.8
20260506120928 55 55 0.0 3.0 0.01 0.17 0.07 1007.8
20260506120426 55 55 0.0 3.0 0.01 0.17 0.07 1007.8
20260506115925 55 55 0.0 3.0 0.02 0.17 0.07 1007.8
20260506115424 55 55 0.0 3.0 0.01 0.16 0.06 1007.5
20260506114922 55 55 1.0 3.0 0.01 0.16 0.06 1007.5
20260506114421 55 55 0.0 2.0 0.01 0.16 0.06 1006.8
20260506113919 54 55 0.0 2.0 0.01 0.16 0.06 1007.1
20260506113418 54 212 0.0 0.0 0.01 0.16 0.06 1007.1
20260506112916 54 212 0.0 0.0 0.01 0.16 0.06 1006.8
20260506112343 54 212 0.0 0.0 0.01 0.16 0.06 1006.8
20260506111841 54 212 0.0 3.0 0.01 0.16 0.06 1007.1
20260506111340 54 212 0.0 3.0 0.01 0.16 0.06 1007.1
20260506110839 54 212 0.0 3.0 0.01 0.16 0.06 1007.5
20260506110234 54 212 0.0 0.0 0.01 0.16 0.06 1007.5
20260506105733 54 212 0.0 0.0 0.00 0.15 0.05 1007.1
20260506105231 54 212 0.0 0.0 0.00 0.15 0.05 1007.1
20260506104729 54 212 0.0 0.0 0.00 0.15 0.05 1007.1
20260506104228 54 212 0.0 3.0 0.00 0.15 0.05 1007.1
20260506103725 54 212 0.0 3.0 0.00 0.15 0.05 1007.5
20260506103153 54 212 0.0 2.0 0.00 0.15 0.05 1007.1
20260506102651 54 212 0.0 0.0 0.00 0.15 0.05 1007.1
20260506102149 53 213 0.0 0.0 0.00 0.15 0.05 1007.5
20260506101648 53 213 0.0 0.0 0.00 0.16 0.05 1007.5
20260506101116 53 213 0.0 0.0 0.00 0.16 0.05 1007.5
20260506100614 53 213 0.0 0.0 0.00 0.16 0.05 1007.1
20260506100113 54 212 0.0 0.0 0.00 0.16 0.05 1006.8
20260506095611 54 212 0.0 0.0 0.00 0.16 0.05 1006.8
20260506095109 54 212 0.0 0.0 0.00 0.16 0.05 1006.8
20260506094608 53 212 0.0 0.0 0.00 0.16 0.05 1006.8
20260506094106 54 212 0.0 0.0 0.00 0.16 0.05 1006.8
20260506093604 54 212 0.0 2.0 0.00 0.16 0.05 1006.8
20260506093101 54 212 0.0 2.0 0.00 0.16 0.05 1006.8
20260506092600 54 212 0.0 0.0 0.00 0.16 0.05 1006.8
20260506092059 54 212 0.0 0.0 0.00 0.16 0.05 1006.8
20260506091558 54 212 0.0 0.0 0.00 0.16 0.05 1006.8
20260506091057 54 212 0.0 0.0 0.00 0.16 0.05 1006.8
20260506090555 54 212 0.0 0.0 0.00 0.16 0.05 1006.8
20260506090053 54 212 0.0 0.0 0.00 0.16 0.05 1007.1
20260506085552 54 212 0.0 0.0 0.00 0.16 0.05 1006.8
20260506085050 54 212 0.0 0.0 0.00 0.16 0.05 1006.8
20260506084516 54 212 0.0 0.0 0.00 0.16 0.05 1007.1
20260506084014 54 212 0.0 0.0 0.00 0.16 0.05 1007.1
20260506083512 54 212 0.0 3.0 0.00 0.16 0.05 1007.1
20260506083010 54 212 1.0 3.0 0.00 0.16 0.05 1007.1
20260506082508 54 212 0.0 3.0 0.00 0.16 0.05 1007.1
20260506082007 54 212 0.0 0.0 0.00 0.16 0.05 1007.1
20260506081435 54 212 0.0 0.0 0.00 0.16 0.05 1007.5
20260506080903 54 212 0.0 0.0 0.00 0.16 0.05 1007.5
20260506080401 54 212 0.0 3.0 0.00 0.16 0.05 1007.5
20260506073352 55 212 0.0 2.0 0.00 0.16 0.05 1007.8
20260506072818 55 212 0.0 2.0 0.00 0.16 0.05 1007.8
20260506072317 55 212 0.0 2.0 0.00 0.16 0.05 1007.8
20260506071816 55 212 0.0 0.0 0.00 0.16 0.05 1007.8
20260506071314 55 212 0.0 0.0 0.00 0.16 0.05 1007.8
20260506070813 55 212 0.0 0.0 0.00 0.16 0.05 1007.8
20260506070311 55 212 0.0 0.0 0.00 0.16 0.05 1007.8
20260506062157 56 212 0.0 4.0 0.00 0.16 0.05 1008.1
20260506061552 56 212 0.0 4.0 0.00 0.16 0.05 1008.1
20260506061049 57 211 2.0 4.0 0.00 0.16 0.05 1008.1
20260506060517 57 209 0.0 6.0 0.00 0.16 0.05 1008.1
20260506051325 59 208 1.0 4.0 0.00 0.16 0.05 1008.5
20260506050823 59 208 3.0 6.0 0.00 0.16 0.05 1008.1
20260506050322 59 208 0.0 6.0 0.00 0.16 0.05 1008.1
20260506044819 60 278 0.0 0.0 0.05 0.16 0.05 1008.1
20260506044316 60 279 0.0 3.0 0.05 0.16 0.05 1008.1
20260506043815 60 278 0.0 3.0 0.05 0.16 0.05 1008.5
20260506043314 60 279 0.0 4.0 0.05 0.16 0.05 1008.5
20260506042811 60 278 0.0 4.0 0.05 0.16 0.05 1008.1
20260506042310 61 278 1.0 4.0 0.05 0.16 0.05 1008.5
20260506041809 61 278 1.0 3.0 0.05 0.16 0.05 1008.5
20260506041237 61 279 0.0 3.0 0.05 0.16 0.05 1008.1
20260506040735 62 278 0.0 6.0 0.05 0.16 0.05 1008.5
20260506040234 62 278 0.0 6.0 0.04 0.15 0.04 1008.1
20260506035732 62 276 2.0 4.0 0.00 0.11 0.11 1008.1
20260506035230 62 274 0.0 3.0 0.00 0.11 0.11 1008.1
20260506034729 62 274 0.0 4.0 0.00 0.11 0.11 1008.5
20260506034227 62 274 2.0 7.0 0.00 0.11 0.11 1008.1
20260506033725 62 274 1.0 7.0 0.00 0.11 0.11 1008.1
20260506033224 62 267 4.0 7.0 0.00 0.11 0.11 1008.1
20260506032722 61 289 4.0 7.0 0.00 0.11 0.11 1008.1
20260506032221 61 209 2.0 6.0 0.00 0.11 0.11 1008.1
20260506031649 61 183 0.0 4.0 0.00 0.11 0.11 1008.1
20260506031116 61 183 2.0 4.0 0.00 0.11 0.11 1008.1
20260506030543 60 183 0.0 3.0 0.00 0.11 0.11 1008.1
20260506030042 60 183 0.0 0.0 0.00 0.11 0.11 1007.8